| time (UTC) | temp C | wind direction | speed KPH | gust KPH | rain 1hr cm | rain 24hr cm | rain mn cm | humidity % | barometer mb |
| 20260903133747 | 8 | 193 | 24.1 | 37.0 | 0.00 | 0.00 | 0.00 | 92 | 731.4 |
| 20260903133247 | 8 | 189 | 27.4 | 41.8 | 0.00 | 0.00 | 0.00 | 91 | 731.4 |
| 20260903132744 | 8 | 193 | 25.7 | 41.8 | 0.00 | 0.00 | 0.00 | 90 | 731.4 |
| 20260903132247 | 8 | 191 | 25.7 | 40.2 | 0.00 | 0.00 | 0.00 | 90 | 731.4 |
| 20260903131744 | 8 | 193 | 24.1 | 41.8 | 0.00 | 0.00 | 0.00 | 89 | 731.4 |
| 20260903131244 | 8 | 191 | 25.7 | 37.0 | 0.00 | 0.00 | 0.00 | 89 | 731.4 |
| 20260903130744 | 8 | 191 | 25.7 | 40.2 | 0.00 | 0.00 | 0.00 | 89 | 731.4 |
| 20260903130244 | 8 | 188 | 25.7 | 37.0 | 0.00 | 0.00 | 0.00 | 89 | 731.4 |
| 20260903125744 | 8 | 188 | 27.4 | 37.0 | 0.00 | 0.00 | 0.00 | 88 | 731.4 |
| 20260903125244 | 8 | 189 | 25.7 | 38.6 | 0.00 | 0.00 | 0.00 | 88 | 731.4 |
| 20260903124747 | 9 | 189 | 27.4 | 37.0 | 0.00 | 0.00 | 0.00 | 87 | 731.4 |
| 20260903124244 | 9 | 187 | 29.0 | 40.2 | 0.00 | 0.00 | 0.00 | 88 | 731.4 |
| 20260903123747 | 9 | 188 | 27.4 | 40.2 | 0.00 | 0.00 | 0.00 | 87 | 731.4 |
| 20260903123244 | 9 | 188 | 27.4 | 37.0 | 0.00 | 0.00 | 0.00 | 88 | 731.4 |
| 20260903122744 | 8 | 188 | 27.4 | 38.6 | 0.00 | 0.00 | 0.00 | 87 | 731.4 |
| 20260903122245 | 9 | 188 | 25.7 | 37.0 | 0.00 | 0.00 | 0.00 | 87 | 731.4 |
| 20260903121744 | 9 | 188 | 27.4 | 37.0 | 0.00 | 0.00 | 0.00 | 87 | 731.4 |
| 20260903121244 | 8 | 189 | 25.7 | 37.0 | 0.00 | 0.00 | 0.00 | 87 | 731.4 |
| 20260903120748 | 8 | 188 | 24.1 | 35.4 | 0.00 | 0.00 | 0.00 | 87 | 731.4 |
| 20260903120245 | 9 | 192 | 22.5 | 33.8 | 0.00 | 0.00 | 0.00 | 87 | 731.4 |
| 20260903115744 | 9 | 190 | 22.5 | 33.8 | 0.00 | 0.00 | 0.00 | 87 | 731.8 |
| 20260903115247 | 9 | 188 | 22.5 | 33.8 | 0.00 | 0.00 | 0.00 | 87 | 731.4 |
| 20260903114750 | 9 | 189 | 24.1 | 33.8 | 0.00 | 0.00 | 0.00 | 86 | 731.4 |
| 20260903114244 | 9 | 187 | 25.7 | 33.8 | 0.00 | 0.00 | 0.00 | 87 | 731.4 |
| 20260903113752 | 9 | 187 | 25.7 | 35.4 | 0.00 | 0.00 | 0.00 | 87 | 731.4 |
| 20260903113247 | 9 | 188 | 25.7 | 40.2 | 0.00 | 0.00 | 0.00 | 87 | 731.4 |
| 20260903112750 | 9 | 189 | 25.7 | 37.0 | 0.00 | 0.00 | 0.00 | 87 | 731.4 |
| 20260903112244 | 9 | 194 | 24.1 | 37.0 | 0.00 | 0.00 | 0.00 | 87 | 731.4 |
| 20260903111745 | 9 | 191 | 24.1 | 35.4 | 0.00 | 0.00 | 0.00 | 88 | 731.4 |
| 20260903111244 | 9 | 193 | 22.5 | 35.4 | 0.00 | 0.00 | 0.00 | 88 | 731.4 |
| 20260903110747 | 9 | 191 | 22.5 | 41.8 | 0.00 | 0.00 | 0.00 | 89 | 731.8 |
| 20260903110244 | 9 | 189 | 24.1 | 37.0 | 0.00 | 0.00 | 0.00 | 89 | 731.8 |
| 20260903105744 | 9 | 188 | 24.1 | 33.8 | 0.00 | 0.00 | 0.00 | 91 | 731.8 |
| 20260903105247 | 9 | 188 | 22.5 | 33.8 | 0.00 | 0.00 | 0.00 | 92 | 731.8 |
| 20260903104747 | 9 | 189 | 22.5 | 32.2 | 0.00 | 0.00 | 0.00 | 93 | 731.8 |
| 20260903104247 | 9 | 192 | 20.9 | 33.8 | 0.00 | 0.00 | 0.00 | 94 | 731.8 |
| 20260903103744 | 9 | 190 | 22.5 | 35.4 | 0.00 | 0.00 | 0.00 | 94 | 731.8 |
| 20260903103248 | 10 | 190 | 24.1 | 40.2 | 0.00 | 0.00 | 0.00 | 93 | 731.8 |
| 20260903102746 | 10 | 192 | 22.5 | 43.5 | 0.00 | 0.00 | 0.00 | 93 | 731.8 |
| 20260903102244 | 10 | 192 | 25.7 | 40.2 | 0.00 | 0.00 | 0.00 | 93 | 731.8 |
| 20260903101744 | 10 | 192 | 24.1 | 48.3 | 0.00 | 0.00 | 0.00 | 93 | 731.8 |
| 20260903101250 | 10 | 191 | 25.7 | 40.2 | 0.00 | 0.00 | 0.00 | 92 | 731.8 |
| 20260903100750 | 10 | 195 | 25.7 | 41.8 | 0.00 | 0.00 | 0.00 | 92 | 731.8 |
| 20260903100245 | 10 | 192 | 22.5 | 40.2 | 0.00 | 0.00 | 0.00 | 92 | 732.1 |
| 20260903095745 | 10 | 192 | 22.5 | 35.4 | 0.00 | 0.00 | 0.00 | 91 | 732.1 |
| 20260903095244 | 10 | 196 | 20.9 | 33.8 | 0.00 | 0.00 | 0.00 | 92 | 732.1 |
| 20260903094744 | 10 | 192 | 20.9 | 35.4 | 0.00 | 0.00 | 0.00 | 91 | 732.1 |
| 20260903094250 | 10 | 193 | 20.9 | 33.8 | 0.00 | 0.00 | 0.00 | 91 | 732.5 |
| 20260903093744 | 10 | 194 | 22.5 | 33.8 | 0.00 | 0.00 | 0.00 | 91 | 732.1 |
| 20260903093245 | 10 | 194 | 20.9 | 35.4 | 0.00 | 0.00 | 0.00 | 90 | 732.1 |
| 20260903092744 | 10 | 190 | 22.5 | 33.8 | 0.00 | 0.00 | 0.00 | 92 | 732.5 |
| 20260903092244 | 10 | 193 | 20.9 | 33.8 | 0.00 | 0.00 | 0.00 | 91 | 732.5 |
| 20260903091744 | 10 | 191 | 22.5 | 37.0 | 0.00 | 0.00 | 0.00 | 91 | 732.5 |
| 20260903091247 | 10 | 196 | 24.1 | 35.4 | 0.00 | 0.00 | 0.00 | 92 | 732.5 |
| 20260903090747 | 10 | 192 | 22.5 | 37.0 | 0.00 | 0.00 | 0.00 | 93 | 732.1 |
| 20260903090244 | 10 | 190 | 24.1 | 40.2 | 0.00 | 0.00 | 0.00 | 93 | 732.5 |
| 20260903085744 | 10 | 194 | 22.5 | 35.4 | 0.00 | 0.00 | 0.00 | 94 | 732.5 |
| 20260903085244 | 10 | 193 | 20.9 | 33.8 | 0.00 | 0.00 | 0.00 | 94 | 732.5 |
| 20260903084745 | 10 | 194 | 20.9 | 33.8 | 0.00 | 0.00 | 0.00 | 94 | 732.5 |
| 20260903084247 | 10 | 191 | 20.9 | 33.8 | 0.00 | 0.00 | 0.00 | 94 | 732.8 |
| 20260903083747 | 10 | 195 | 20.9 | 35.4 | 0.00 | 0.00 | 0.00 | 93 | 732.8 |
| 20260903083244 | 10 | 192 | 22.5 | 33.8 | 0.00 | 0.00 | 0.00 | 94 | 732.8 |
| 20260903082747 | 10 | 192 | 20.9 | 35.4 | 0.00 | 0.00 | 0.00 | 95 | 732.8 |
| 20260903082247 | 10 | 193 | 20.9 | 32.2 | 0.00 | 0.00 | 0.00 | 95 | 732.8 |
| 20260903081748 | 10 | 191 | 22.5 | 35.4 | 0.00 | 0.00 | 0.00 | 94 | 732.8 |
| 20260903081250 | 10 | 190 | 24.1 | 35.4 | 0.00 | 0.00 | 0.00 | 94 | 733.1 |
| 20260903080744 | 10 | 189 | 22.5 | 33.8 | 0.00 | 0.00 | 0.00 | 94 | 732.8 |
| 20260903080247 | 10 | 189 | 22.5 | 32.2 | 0.00 | 0.00 | 0.00 | 94 | 733.1 |
| 20260903075747 | 10 | 190 | 24.1 | 37.0 | 0.00 | 0.00 | 0.00 | 93 | 733.1 |
| 20260903075248 | 10 | 189 | 22.5 | 38.6 | 0.00 | 0.00 | 0.00 | 94 | 733.1 |
| 20260903074753 | 10 | 189 | 24.1 | 32.2 | 0.00 | 0.00 | 0.00 | 94 | 733.1 |
| 20260903074244 | 10 | 189 | 22.5 | 32.2 | 0.00 | 0.00 | 0.00 | 94 | 733.1 |
| 20260903073744 | 10 | 188 | 20.9 | 32.2 | 0.00 | 0.00 | 0.00 | 93 | 733.1 |
| 20260903073247 | 10 | 191 | 19.3 | 32.2 | 0.00 | 0.00 | 0.00 | 93 | 733.1 |
| 20260903072747 | 10 | 188 | 19.3 | 32.2 | 0.00 | 0.00 | 0.00 | 93 | 733.1 |
| 20260903072247 | 10 | 193 | 17.7 | 32.2 | 0.00 | 0.00 | 0.00 | 93 | 733.1 |
| 20260903071745 | 10 | 193 | 17.7 | 29.0 | 0.00 | 0.00 | 0.00 | 94 | 733.5 |
| 20260903071244 | 10 | 191 | 17.7 | 27.4 | 0.00 | 0.00 | 0.00 | 95 | 733.5 |
| 20260903070745 | 10 | 192 | 16.1 | 27.4 | 0.00 | 0.00 | 0.00 | 95 | 733.5 |
| 20260903070250 | 10 | 191 | 19.3 | 29.0 | 0.00 | 0.00 | 0.00 | 94 | 733.5 |
| 20260903065747 | 10 | 193 | 19.3 | 30.6 | 0.00 | 0.00 | 0.00 | 95 | 733.5 |
| 20260903065252 | 10 | 189 | 19.3 | 32.2 | 0.00 | 0.00 | 0.00 | 94 | 733.5 |
| 20260903064744 | 10 | 190 | 20.9 | 30.6 | 0.00 | 0.00 | 0.00 | 94 | 733.5 |
| 20260903064250 | 10 | 192 | 17.7 | 27.4 | 0.00 | 0.00 | 0.00 | 93 | 733.5 |
| 20260903063744 | 10 | 193 | 17.7 | 32.2 | 0.00 | 0.00 | 0.00 | 92 | 733.5 |
| 20260903063252 | 10 | 188 | 19.3 | 25.7 | 0.00 | 0.00 | 0.00 | 92 | 733.5 |
| 20260903062744 | 10 | 189 | 17.7 | 25.7 | 0.00 | 0.00 | 0.00 | 91 | 733.5 |
| 20260903062247 | 10 | 195 | 16.1 | 24.1 | 0.00 | 0.00 | 0.00 | 91 | 733.5 |
| 20260903061744 | 10 | 190 | 16.1 | 25.7 | 0.00 | 0.00 | 0.00 | 90 | 733.5 |
| 20260903061244 | 10 | 189 | 17.7 | 24.1 | 0.00 | 0.00 | 0.00 | 90 | 733.5 |
| 20260903060750 | 10 | 189 | 16.1 | 24.1 | 0.00 | 0.00 | 0.00 | 90 | 733.8 |
| 20260903060245 | 10 | 186 | 16.1 | 24.1 | 0.00 | 0.00 | 0.00 | 90 | 733.8 |
| 20260903055745 | 11 | 186 | 16.1 | 25.7 | 0.00 | 0.00 | 0.00 | 90 | 733.8 |
| 20260903055252 | 11 | 186 | 17.7 | 25.7 | 0.00 | 0.00 | 0.00 | 90 | 733.5 |
| 20260903054744 | 11 | 187 | 17.7 | 27.4 | 0.00 | 0.00 | 0.00 | 90 | 733.5 |
| 20260903054245 | 11 | 184 | 17.7 | 27.4 | 0.00 | 0.00 | 0.00 | 90 | 733.8 |
| 20260903053744 | 11 | 187 | 16.1 | 30.6 | 0.00 | 0.00 | 0.00 | 89 | 733.8 |
| 20260903053248 | 11 | 187 | 16.1 | 25.7 | 0.00 | 0.00 | 0.00 | 89 | 733.8 |
| 20260903052745 | 11 | 184 | 16.1 | 27.4 | 0.00 | 0.00 | 0.00 | 88 | 733.8 |
| 20260903052244 | 11 | 188 | 17.7 | 27.4 | 0.00 | 0.00 | 0.00 | 88 | 733.8 |
| 20260903051744 | 11 | 187 | 16.1 | 24.1 | 0.00 | 0.00 | 0.00 | 87 | 733.8 |
| 20260903051244 | 11 | 186 | 16.1 | 24.1 | 0.00 | 0.00 | 0.00 | 87 | 733.8 |
| 20260903050745 | 11 | 185 | 17.7 | 20.9 | 0.00 | 0.00 | 0.00 | 87 | 733.8 |
| 20260903050248 | 11 | 184 | 16.1 | 20.9 | 0.00 | 0.00 | 0.00 | 87 | 733.8 |
| 20260903045744 | 11 | 185 | 16.1 | 20.9 | 0.00 | 0.00 | 0.00 | 88 | 733.8 |
| 20260903045244 | 11 | 186 | 14.5 | 19.3 | 0.00 | 0.00 | 0.00 | 87 | 734.2 |
| 20260903044744 | 11 | 185 | 14.5 | 22.5 | 0.00 | 0.00 | 0.00 | 87 | 733.8 |
| 20260903044244 | 11 | 184 | 14.5 | 20.9 | 0.00 | 0.00 | 0.00 | 87 | 733.8 |
| 20260903043747 | 11 | 187 | 14.5 | 22.5 | 0.00 | 0.00 | 0.00 | 87 | 733.8 |
| 20260903043244 | 11 | 189 | 14.5 | 22.5 | 0.00 | 0.00 | 0.00 | 86 | 733.8 |
| 20260903042747 | 11 | 187 | 14.5 | 20.9 | 0.00 | 0.00 | 0.00 | 86 | 733.8 |
| 20260903042244 | 11 | 185 | 14.5 | 24.1 | 0.00 | 0.00 | 0.00 | 85 | 733.8 |
| 20260903041747 | 11 | 187 | 16.1 | 25.7 | 0.00 | 0.00 | 0.00 | 85 | 733.8 |
| 20260903041248 | 11 | 186 | 14.5 | 24.1 | 0.00 | 0.00 | 0.00 | 85 | 733.8 |
| 20260903040744 | 11 | 188 | 16.1 | 24.1 | 0.00 | 0.00 | 0.00 | 84 | 733.8 |
| 20260903040244 | 11 | 186 | 16.1 | 20.9 | 0.00 | 0.00 | 0.00 | 82 | 733.8 |
| 20260903035744 | 11 | 185 | 14.5 | 22.5 | 0.00 | 0.00 | 0.00 | 82 | 733.8 |
| 20260903035253 | 11 | 182 | 14.5 | 20.9 | 0.00 | 0.00 | 0.00 | 81 | 733.8 |
| 20260903034748 | 11 | 186 | 16.1 | 20.9 | 0.00 | 0.00 | 0.00 | 78 | 733.8 |
| 20260903034244 | 11 | 185 | 16.1 | 19.3 | 0.00 | 0.00 | 0.00 | 77 | 733.8 |
| 20260903033744 | 11 | 187 | 14.5 | 22.5 | 0.00 | 0.00 | 0.00 | 77 | 733.8 |
| 20260903033246 | 11 | 184 | 12.9 | 19.3 | 0.00 | 0.00 | 0.00 | 77 | 733.8 |
| 20260903032744 | 11 | 188 | 12.9 | 19.3 | 0.00 | 0.00 | 0.00 | 77 | 733.8 |
| 20260903032244 | 11 | 186 | 12.9 | 22.5 | 0.00 | 0.00 | 0.00 | 76 | 733.5 |
| 20260903031747 | 11 | 182 | 14.5 | 24.1 | 0.00 | 0.00 | 0.00 | 72 | 733.5 |
| 20260903031247 | 11 | 186 | 14.5 | 22.5 | 0.00 | 0.00 | 0.00 | 72 | 733.5 |
| 20260903030747 | 11 | 188 | 16.1 | 22.5 | 0.00 | 0.00 | 0.00 | 72 | 733.5 |
| 20260903030245 | 11 | 185 | 14.5 | 22.5 | 0.00 | 0.00 | 0.00 | 71 | 733.5 |
| 20260903025744 | 12 | 182 | 14.5 | 27.4 | 0.00 | 0.00 | 0.00 | 70 | 733.5 |
| 20260903025250 | 12 | 185 | 14.5 | 20.9 | 0.00 | 0.00 | 0.00 | 70 | 733.5 |
| 20260903024747 | 12 | 187 | 14.5 | 22.5 | 0.00 | 0.00 | 0.00 | 71 | 733.5 |
| 20260903024247 | 12 | 189 | 16.1 | 22.5 | 0.00 | 0.00 | 0.00 | 70 | 733.1 |
| 20260903023747 | 12 | 186 | 14.5 | 20.9 | 0.00 | 0.00 | 0.00 | 71 | 733.5 |
| 20260903023247 | 11 | 180 | 12.9 | 19.3 | 0.00 | 0.00 | 0.00 | 67 | 733.1 |
| 20260903022745 | 11 | 178 | 11.3 | 17.7 | 0.00 | 0.00 | 0.00 | 63 | 733.5 |
| 20260903022244 | 11 | 185 | 12.9 | 16.1 | 0.00 | 0.00 | 0.00 | 63 | 733.5 |
| 20260903021744 | 12 | 184 | 11.3 | 14.5 | 0.00 | 0.00 | 0.00 | 63 | 733.5 |
| 20260903021244 | 12 | 186 | 11.3 | 16.1 | 0.00 | 0.00 | 0.00 | 62 | 733.5 |
| 20260903020744 | 12 | 192 | 8.0 | 12.9 | 0.00 | 0.00 | 0.00 | 62 | 733.5 |
| 20260903020244 | 12 | 186 | 8.0 | 11.3 | 0.00 | 0.00 | 0.00 | 63 | 733.5 |
| 20260903015744 | 12 | 187 | 8.0 | 12.9 | 0.00 | 0.00 | 0.00 | 63 | 733.5 |
| 20260903015244 | 12 | 190 | 8.0 | 14.5 | 0.00 | 0.00 | 0.00 | 62 | 733.5 |
| 20260903014745 | 13 | 190 | 6.4 | 11.3 | 0.00 | 0.00 | 0.00 | 63 | 733.5 |
| 20260903014244 | 13 | 186 | 8.0 | 14.5 | 0.00 | 0.00 | 0.00 | 63 | 733.5 |
| 20260903013745 | 13 | 185 | 9.7 | 19.3 | 0.00 | 0.00 | 0.00 | 63 | 733.5 |
| 20260903013244 | 13 | 188 | 11.3 | 19.3 | 0.00 | 0.00 | 0.00 | 62 | 733.5 |
| 20260903012744 | 13 | 187 | 12.9 | 19.3 | 0.00 | 0.00 | 0.00 | 63 | 733.1 |
| 20260903012244 | 13 | 196 | 9.7 | 22.5 | 0.00 | 0.00 | 0.00 | 62 | 733.5 |
| 20260903011744 | 13 | 195 | 9.7 | 24.1 | 0.00 | 0.00 | 0.00 | 62 | 733.1 |
| 20260903011255 | 14 | 199 | 11.3 | 22.5 | 0.00 | 0.00 | 0.00 | 63 | 733.1 |
| 20260903010747 | 14 | 191 | 14.5 | 25.7 | 0.00 | 0.00 | 0.00 | 64 | 733.1 |
| 20260903010244 | 14 | 198 | 12.9 | 25.7 | 0.00 | 0.00 | 0.00 | 63 | 733.5 |
| 20260903005747 | 14 | 198 | 11.3 | 22.5 | 0.00 | 0.00 | 0.00 | 62 | 733.5 |
| 20260903005244 | 14 | 198 | 8.0 | 17.7 | 0.00 | 0.00 | 0.00 | 61 | 733.5 |
| 20260903004744 | 14 | 197 | 9.7 | 24.1 | 0.00 | 0.00 | 0.00 | 61 | 733.5 |
| 20260903004244 | 15 | 195 | 11.3 | 20.9 | 0.00 | 0.00 | 0.00 | 60 | 733.5 |
| 20260903003750 | 15 | 196 | 9.7 | 24.1 | 0.00 | 0.00 | 0.00 | 60 | 733.5 |
| 20260903003247 | 15 | 203 | 8.0 | 20.9 | 0.00 | 0.00 | 0.00 | 60 | 733.5 |
| 20260903002744 | 15 | 201 | 9.7 | 25.7 | 0.00 | 0.00 | 0.00 | 58 | 733.5 |
| 20260903002244 | 15 | 205 | 8.0 | 22.5 | 0.00 | 0.00 | 0.00 | 58 | 733.8 |
| 20260903001744 | 15 | 200 | 6.4 | 17.7 | 0.00 | 0.00 | 0.00 | 58 | 733.5 |
| 20260903001247 | 15 | 212 | 8.0 | 17.7 | 0.00 | 0.00 | 0.00 | 57 | 733.5 |
| 20260903000744 | 15 | 235 | 3.2 | 19.3 | 0.00 | 0.00 | 0.00 | 57 | 733.5 |
| 20260903000250 | 16 | 201 | 8.0 | 19.3 | 0.00 | 0.00 | 0.00 | 58 | 733.5 |
| 20260902235747 | 16 | 201 | 8.0 | 20.9 | 0.00 | 0.00 | 0.00 | 57 | 733.5 |
| 20260902235247 | 16 | 201 | 6.4 | 17.7 | 0.00 | 0.00 | 0.00 | 58 | 733.8 |
| 20260902234744 | 16 | 202 | 11.3 | 25.7 | 0.00 | 0.00 | 0.00 | 59 | 733.5 |
| 20260902234250 | 16 | 209 | 8.0 | 22.5 | 0.00 | 0.00 | 0.00 | 57 | 733.8 |
| 20260902233744 | 16 | 204 | 6.4 | 17.7 | 0.00 | 0.00 | 0.00 | 55 | 733.8 |
| 20260902233244 | 16 | 204 | 6.4 | 20.9 | 0.00 | 0.00 | 0.00 | 57 | 733.8 |
| 20260902232744 | 16 | 201 | 8.0 | 14.5 | 0.00 | 0.00 | 0.00 | 58 | 733.8 |
| 20260902232244 | 16 | 199 | 1.6 | 22.5 | 0.00 | 0.00 | 0.00 | 58 | 733.8 |
| 20260902231747 | 17 | 198 | 11.3 | 22.5 | 0.00 | 0.00 | 0.00 | 56 | 733.8 |
| 20260902231247 | 16 | 219 | 4.8 | 17.7 | 0.00 | 0.00 | 0.00 | 57 | 733.8 |
| 20260902230747 | 16 | 205 | 4.8 | 22.5 | 0.00 | 0.00 | 0.00 | 58 | 733.8 |
| 20260902230247 | 17 | 211 | 4.8 | 19.3 | 0.00 | 0.00 | 0.00 | 56 | 733.8 |
| 20260902225745 | 17 | 207 | 8.0 | 17.7 | 0.00 | 0.00 | 0.00 | 56 | 733.8 |
| 20260902225244 | 16 | 198 | 1.6 | 14.5 | 0.00 | 0.00 | 0.00 | 57 | 733.8 |
| 20260902224747 | 16 | 235 | 1.6 | 19.3 | 0.00 | 0.00 | 0.00 | 57 | 734.2 |
| 20260902224250 | 17 | 199 | 6.4 | 20.9 | 0.00 | 0.00 | 0.00 | 55 | 734.2 |
| 20260902223748 | 17 | 191 | 6.4 | 16.1 | 0.00 | 0.00 | 0.00 | 56 | 734.2 |
| 20260902223244 | 17 | 184 | 4.8 | 17.7 | 0.00 | 0.00 | 0.00 | 55 | 734.2 |
| 20260902222744 | 18 | 199 | 9.7 | 19.3 | 0.00 | 0.00 | 0.00 | 53 | 734.2 |
| 20260902222244 | 18 | 207 | 3.2 | 17.7 | 0.00 | 0.00 | 0.00 | 53 | 734.2 |
| 20260902221744 | 17 | 212 | 3.2 | 16.1 | 0.00 | 0.00 | 0.00 | 54 | 734.5 |
| 20260902221250 | 18 | 250 | 1.6 | 14.5 | 0.00 | 0.00 | 0.00 | 51 | 734.5 |
| 20260902220744 | 19 | 253 | 1.6 | 14.5 | 0.00 | 0.00 | 0.00 | 52 | 734.5 |
| 20260902220244 | 18 | 188 | 0.0 | 11.3 | 0.00 | 0.00 | 0.00 | 55 | 734.5 |
| 20260902215748 | 18 | 198 | 4.8 | 12.9 | 0.00 | 0.00 | 0.00 | 53 | 734.5 |
| 20260902215250 | 18 | 290 | 3.2 | 14.5 | 0.00 | 0.00 | 0.00 | 50 | 734.5 |
| 20260902214744 | 19 | 72 | 3.2 | 8.0 | 0.00 | 0.00 | 0.00 | 50 | 734.5 |
| 20260902214244 | 18 | 207 | 3.2 | 9.7 | 0.00 | 0.00 | 0.00 | 51 | 734.5 |
| 20260902213744 | 18 | 318 | 1.6 | 16.1 | 0.00 | 0.00 | 0.00 | 52 | 734.5 |
| 20260902213244 | 18 | 295 | 3.2 | 11.3 | 0.00 | 0.00 | 0.00 | 53 | 734.5 |
| 20260902212744 | 19 | 220 | 4.8 | 12.9 | 0.00 | 0.00 | 0.00 | 51 | 734.5 |
| 20260902212250 | 18 | 246 | 1.6 | 9.7 | 0.00 | 0.00 | 0.00 | 54 | 734.8 |
| 20260902211744 | 17 | 183 | 1.6 | 16.1 | 0.00 | 0.00 | 0.00 | 56 | 734.5 |
| 20260902211244 | 18 | 206 | 4.8 | 16.1 | 0.00 | 0.00 | 0.00 | 54 | 734.8 |
| 20260902210747 | 18 | 268 | 1.6 | 12.9 | 0.00 | 0.00 | 0.00 | 52 | 734.5 |
| 20260902210251 | 19 | 160 | 3.2 | 12.9 | 0.00 | 0.00 | 0.00 | 55 | 734.8 |
| 20260902205744 | 18 | 212 | 4.8 | 12.9 | 0.00 | 0.00 | 0.00 | 53 | 734.8 |
| 20260902205244 | 18 | 204 | 1.6 | 16.1 | 0.00 | 0.00 | 0.00 | 56 | 734.8 |
| 20260902204748 | 18 | 61 | 1.6 | 12.9 | 0.00 | 0.00 | 0.00 | 52 | 734.8 |
| 20260902204247 | 18 | 241 | 1.6 | 9.7 | 0.00 | 0.00 | 0.00 | 54 | 734.8 |
| 20260902203747 | 18 | 224 | 1.6 | 11.3 | 0.00 | 0.00 | 0.00 | 54 | 734.8 |
| 20260902203247 | 18 | 216 | 1.6 | 12.9 | 0.00 | 0.00 | 0.00 | 53 | 734.8 |
| 20260902202745 | 18 | 147 | 1.6 | 14.5 | 0.00 | 0.00 | 0.00 | 53 | 734.8 |
| 20260902202244 | 18 | 255 | 1.6 | 14.5 | 0.00 | 0.00 | 0.00 | 54 | 734.8 |
| 20260902201744 | 18 | 238 | 1.6 | 14.5 | 0.00 | 0.00 | 0.00 | 52 | 734.8 |
| 20260902201244 | 18 | 217 | 3.2 | 12.9 | 0.00 | 0.00 | 0.00 | 54 | 734.8 |
| 20260902200744 | 18 | 292 | 1.6 | 11.3 | 0.00 | 0.00 | 0.00 | 52 | 734.8 |
| 20260902200244 | 18 | 265 | 3.2 | 12.9 | 0.00 | 0.00 | 0.00 | 53 | 734.8 |
| 20260902195745 | 17 | 208 | 4.8 | 11.3 | 0.00 | 0.00 | 0.00 | 55 | 735.2 |
| 20260902195244 | 18 | 225 | 3.2 | 9.7 | 0.00 | 0.00 | 0.00 | 56 | 735.2 |
| 20260902194744 | 17 | 237 | 0.0 | 17.7 | 0.00 | 0.00 | 0.00 | 55 | 734.8 |
| 20260902194244 | 18 | 215 | 3.2 | 12.9 | 0.00 | 0.00 | 0.00 | 53 | 735.2 |
| 20260902193744 | 17 | 239 | 0.0 | 11.3 | 0.00 | 0.00 | 0.00 | 54 | 735.2 |
| 20260902193247 | 18 | 236 | 1.6 | 8.0 | 0.00 | 0.00 | 0.00 | 52 | 735.2 |
| 20260902192744 | 18 | 308 | 3.2 | 11.3 | 0.00 | 0.00 | 0.00 | 51 | 735.2 |
| 20260902192250 | 18 | 333 | 1.6 | 6.4 | 0.00 | 0.00 | 0.00 | 54 | 735.2 |
| 20260902191747 | 17 | 224 | 1.6 | 8.0 | 0.00 | 0.00 | 0.00 | 53 | 735.2 |
| 20260902191245 | 17 | 228 | 3.2 | 11.3 | 0.00 | 0.00 | 0.00 | 55 | 735.2 |
| 20260902190747 | 17 | 315 | 3.2 | 8.0 | 0.00 | 0.00 | 0.00 | 56 | 735.2 |
| 20260902190247 | 16 | 4 | 1.6 | 17.7 | 0.00 | 0.00 | 0.00 | 54 | 735.2 |
| 20260902185744 | 17 | 123 | 1.6 | 12.9 | 0.00 | 0.00 | 0.00 | 52 | 735.2 |
| 20260902185245 | 17 | 194 | 1.6 | 9.7 | 0.00 | 0.00 | 0.00 | 56 | 735.2 |
| 20260902184750 | 17 | 178 | 3.2 | 11.3 | 0.00 | 0.00 | 0.00 | 55 | 735.2 |
| 20260902184247 | 17 | 104 | 3.2 | 9.7 | 0.00 | 0.00 | 0.00 | 54 | 735.5 |
| 20260902183744 | 17 | 256 | 1.6 | 8.0 | 0.00 | 0.00 | 0.00 | 59 | 735.5 |
| 20260902183244 | 16 | 246 | 1.6 | 11.3 | 0.00 | 0.00 | 0.00 | 62 | 735.5 |
| 20260902182744 | 16 | 168 | 4.8 | 12.9 | 0.00 | 0.00 | 0.00 | 59 | 735.5 |
| 20260902182247 | 16 | 193 | 3.2 | 16.1 | 0.00 | 0.00 | 0.00 | 62 | 735.5 |
| 20260902181747 | 16 | 243 | 1.6 | 11.3 | 0.00 | 0.00 | 0.00 | 66 | 735.5 |
| 20260902181244 | 16 | 186 | 3.2 | 14.5 | 0.00 | 0.00 | 0.00 | 63 | 735.5 |
| 20260902180744 | 16 | 246 | 3.2 | 12.9 | 0.00 | 0.00 | 0.00 | 65 | 735.5 |
| 20260902180247 | 15 | 177 | 4.8 | 16.1 | 0.00 | 0.00 | 0.00 | 68 | 735.5 |
| 20260902175747 | 15 | 203 | 6.4 | 17.7 | 0.00 | 0.00 | 0.00 | 67 | 735.5 |
| 20260902175244 | 15 | 231 | 1.6 | 16.1 | 0.00 | 0.00 | 0.00 | 67 | 735.5 |
| 20260902174744 | 15 | 210 | 4.8 | 14.5 | 0.00 | 0.00 | 0.00 | 69 | 735.2 |
| 20260902174245 | 14 | 211 | 4.8 | 16.1 | 0.00 | 0.00 | 0.00 | 71 | 735.2 |
| 20260902173750 | 14 | 186 | 8.0 | 16.1 | 0.00 | 0.00 | 0.00 | 71 | 735.2 |
| 20260902173244 | 13 | 198 | 6.4 | 14.5 | 0.00 | 0.00 | 0.00 | 73 | 735.2 |
| 20260902172747 | 13 | 202 | 6.4 | 14.5 | 0.00 | 0.00 | 0.00 | 74 | 735.2 |
| 20260902172247 | 14 | 186 | 8.0 | 14.5 | 0.00 | 0.00 | 0.00 | 74 | 735.2 |
| 20260902171747 | 14 | 166 | 8.0 | 16.1 | 0.00 | 0.00 | 0.00 | 73 | 735.2 |
| 20260902171244 | 13 | 192 | 8.0 | 14.5 | 0.00 | 0.00 | 0.00 | 75 | 735.2 |
| 20260902170744 | 13 | 202 | 3.2 | 11.3 | 0.00 | 0.00 | 0.00 | 76 | 735.2 |
| 20260902170244 | 13 | 186 | 4.8 | 16.1 | 0.00 | 0.00 | 0.00 | 76 | 735.2 |
| 20260902165747 | 13 | 188 | 9.7 | 14.5 | 0.00 | 0.00 | 0.00 | 75 | 735.2 |
| 20260902165244 | 13 | 187 | 4.8 | 14.5 | 0.00 | 0.00 | 0.00 | 74 | 735.2 |
| 20260902164747 | 13 | 195 | 6.4 | 14.5 | 0.00 | 0.00 | 0.00 | 77 | 735.2 |
| 20260902164244 | 13 | 190 | 8.0 | 11.3 | 0.00 | 0.00 | 0.00 | 77 | 735.2 |
| 20260902163744 | 13 | 196 | 8.0 | 12.9 | 0.00 | 0.00 | 0.00 | 78 | 735.2 |
| 20260902163244 | 13 | 188 | 6.4 | 11.3 | 0.00 | 0.00 | 0.00 | 77 | 734.8 |
| 20260902162744 | 13 | 183 | 6.4 | 12.9 | 0.00 | 0.00 | 0.00 | 76 | 735.2 |
| 20260902162244 | 14 | 187 | 4.8 | 11.3 | 0.00 | 0.00 | 0.00 | 75 | 735.2 |
| 20260902161747 | 13 | 194 | 4.8 | 12.9 | 0.00 | 0.00 | 0.00 | 76 | 734.8 |
| 20260902161244 | 13 | 193 | 6.4 | 12.9 | 0.00 | 0.00 | 0.00 | 76 | 734.8 |
| 20260902160744 | 13 | 171 | 8.0 | 11.3 | 0.00 | 0.00 | 0.00 | 77 | 734.8 |
| 20260902160244 | 13 | 191 | 6.4 | 9.7 | 0.00 | 0.00 | 0.00 | 77 | 734.8 |
| 20260902155744 | 13 | 182 | 6.4 | 12.9 | 0.00 | 0.00 | 0.00 | 77 | 734.8 |
| 20260902155244 | 13 | 188 | 6.4 | 12.9 | 0.00 | 0.00 | 0.00 | 78 | 734.8 |
| 20260902154744 | 13 | 182 | 6.4 | 11.3 | 0.00 | 0.00 | 0.00 | 77 | 734.8 |
| 20260902154244 | 13 | 194 | 3.2 | 9.7 | 0.00 | 0.00 | 0.00 | 77 | 734.8 |
| 20260902153744 | 13 | 182 | 6.4 | 9.7 | 0.00 | 0.00 | 0.00 | 80 | 734.8 |
| 20260902153244 | 13 | 200 | 3.2 | 11.3 | 0.00 | 0.00 | 0.00 | 80 | 734.8 |
| 20260902152747 | 13 | 197 | 3.2 | 11.3 | 0.00 | 0.00 | 0.00 | 80 | 734.8 |
| 20260902152244 | 12 | 205 | 6.4 | 11.3 | 0.00 | 0.00 | 0.00 | 81 | 734.8 |
| 20260902151744 | 12 | 195 | 3.2 | 11.3 | 0.00 | 0.00 | 0.00 | 82 | 734.8 |
| 20260902151247 | 12 | 185 | 8.0 | 14.5 | 0.00 | 0.00 | 0.00 | 81 | 734.8 |
| 20260902150744 | 12 | 175 | 8.0 | 9.7 | 0.00 | 0.00 | 0.00 | 81 | 734.5 |
| 20260902150244 | 12 | 190 | 4.8 | 9.7 | 0.00 | 0.00 | 0.00 | 82 | 734.5 |
| 20260902145747 | 12 | 188 | 3.2 | 14.5 | 0.00 | 0.00 | 0.00 | 82 | 734.5 |
| 20260902145247 | 12 | 185 | 4.8 | 11.3 | 0.00 | 0.00 | 0.00 | 82 | 734.5 |
| 20260902144747 | 12 | 195 | 4.8 | 11.3 | 0.00 | 0.00 | 0.00 | 82 | 734.5 |
| 20260902144247 | 12 | 185 | 4.8 | 11.3 | 0.00 | 0.00 | 0.00 | 82 | 734.5 |
| 20260902143744 | 11 | 190 | 3.2 | 9.7 | 0.00 | 0.00 | 0.00 | 83 | 734.5 |
| 20260902143244 | 11 | 187 | 6.4 | 14.5 | 0.00 | 0.00 | 0.00 | 83 | 734.5 |
| 20260902142744 | 11 | 192 | 6.4 | 14.5 | 0.00 | 0.00 | 0.00 | 83 | 734.5 |
| 20260902142244 | 11 | 190 | 8.0 | 12.9 | 0.00 | 0.00 | 0.00 | 82 | 734.5 |
| 20260902141747 | 11 | 197 | 6.4 | 12.9 | 0.00 | 0.00 | 0.00 | 82 | 734.5 |
| 20260902141244 | 11 | 204 | 6.4 | 14.5 | 0.00 | 0.00 | 0.00 | 81 | 734.5 |
| 20260902140744 | 11 | 197 | 8.0 | 14.5 | 0.00 | 0.00 | 0.00 | 81 | 734.5 |
| 20260902140244 | 11 | 203 | 6.4 | 12.9 | 0.00 | 0.00 | 0.00 | 80 | 734.2 |
| 20260902135745 | 11 | 211 | 4.8 | 17.7 | 0.00 | 0.00 | 0.00 | 81 | 734.2 |
| 20260902135244 | 11 | 212 | 4.8 | 11.3 | 0.00 | 0.00 | 0.00 | 81 | 734.2 |
| 20260902134744 | 11 | 199 | 6.4 | 14.5 | 0.00 | 0.00 | 0.00 | 81 | 734.2 |
| 20260902134245 | 11 | 204 | 6.4 | 14.5 | 0.00 | 0.00 | 0.00 | 80 | 734.2 |